RH
22 23 23 21 21 22 17 18 17 25 36 42 35 29 24 29 48 44 31 41 45 45 38 24 14 14 16 20 22 24 27 28 29 28 25 23 20 16 19 22 24 25 26 26 26 27 26 26 25
22 23 24 23 20 23 13 10 19 28 46 40 39 33 29 23 19 15 27 38 40 52 50 42 30 16 16 20 23 25 28 32 35 34 33 29 24 17 18 21 24 26 27 27 27 28 28 27 27
21 24 24 23 22 15 13 20 20 21 39 35 25 21 25 30 27 21 24 50 47 54 56 55 52 30 19 21 23 25 28 30 35 37 38 41 32 20 17 20 24 28 28 28 27 29 29 29 28
23 25 25 23 19 17 21 19 18 28 32 22 21 27 25 27 26 31 50 50 52 48 55 64 62 48 25 22 24 25 26 29 34 40 46 49 37 26 16 17 22 28 29 30 29 30 31 30 29
23 24 22 20 18 18 19 18 17 21 20 19 25 48 48 44 44 44 36 41 49 51 45 58 58 56 38 25 26 27 28 31 35 41 55 54 48 33 19 16 22 30 31 32 32 32 33 32 30
22 22 24 20 18 18 18 20 18 20 18 21 27 27 50 50 48 49 38 44 46 66 47 54 54 51 37 28 29 30 31 32 34 44 53 57 52 40 26 20 27 32 34 34 34 34 34 30 26
18 27 20 21 18 18 20 22 21 19 23 26 25 28 48 54 49 44 30 28 40 50 44 57 58 53 41 36 36 36 36 36 36 42 49 54 61 59 34 28 32 35 37 36 36 35 30 25 17
25 31 28 24 20 20 20 18 17 18 20 37 46 49 50 58 52 47 41 25 23 40 45 37 49 65 58 51 48 45 42 40 41 44 48 60 62 66 72 51 35 38 39 38 36 27 18 15 14
26 25 27 22 23 19 21 18 21 22 29 30 37 47 53 54 54 49 43 37 23 20 22 23 34 55 58 62 61 59 54 48 50 56 65 71 64 69 58 37 39 41 41 38 22 16 17 18 18
21 21 24 24 26 24 24 22 18 17 18 17 18 26 31 28 38 36 42 39 30 22 20 20 22 26 35 44 50 57 64 61 56 70 74 73 68 72 58 44 45 45 39 19 18 20 21 21 22
19 19 19 19 19 24 24 21 20 18 17 17 17 18 24 28 38 35 36 46 34 28 23 22 20 20 22 22 25 34 56 65 70 73 69 74 74 70 56 46 46 40 19 20 22 23 23 24 24
26 19 23 22 20 20 19 21 17 18 18 17 18 20 25 27 29 31 37 38 37 27 21 21 21 20 19 19 20 29 48 70 74 69 73 79 73 61 50 50 39 19 21 23 25 25 26 26 27
26 24 21 22 20 17 17 19 16 16 16 17 17 19 19 20 26 26 30 29 25 22 19 19 21 20 19 19 20 27 51 69 80 84 82 74 61 54 56 40 20 22 24 26 27 28 28 29 29
26 23 23 22 19 18 18 19 16 15 15 17 17 18 22 18 20 23 20 20 21 20 19 19 20 21 23 22 23 31 59 83 86 81 74 66 64 60 29 21 24 26 27 28 29 30 31 33 32
28 27 25 21 23 26 24 24 21 20 16 16 15 17 18 17 19 21 21 19 12 19 24 26 26 25 30 26 29 54 86 90 84 77 74 72 56 23 23 25 26 27 28 29 30 32 35 36 34
28 28 26 25 25 23 21 23 21 22 17 14 13 16 17 19 16 18 19 13 20 17 19 30 32 37 43 36 35 69 93 92 88 84 76 48 23 23 26 27 28 29 30 30 33 36 39 39 35
30 32 32 34 28 29 25 24 17 17 20 15 17 18 18 22 18 15 16 21 21 19 22 37 37 41 48 49 55 94 100 97 89 66 38 24 24 26 28 30 30 31 32 35 38 42 41 38 34
30 35 36 35 32 31 28 27 22 23 23 23 22 21 19 18 18 19 22 24 24 23 19 37 46 40 59 74 83 99 100 90 60 38 28 27 28 29 31 32 33 35 39 40 44 44 41 35 31
37 38 38 35 32 30 27 22 20 22 21 22 23 23 22 22 23 24 28 28 27 32 29 26 34 42 75 88 89 100 90 61 43 36 34 33 33 34 34 35 38 42 43 45 47 44 36 34 31
34 36 32 32 30 25 21 17 18 19 21 24 24 26 26 25 26 28 31 31 31 31 40 34 30 31 77 95 96 100 83 56 45 41 39 38 37 38 40 44 46 47 49 50 48 39 37 30 26
31 30 28 26 22 23 23 22 21 20 21 18 16 20 24 29 32 30 32 35 36 30 45 52 40 42 79 98 90 99 76 55 50 46 43 41 42 45 49 50 52 55 56 49 41 37 27 27 32
23 23 23 25 26 24 26 30 26 22 18 13 10 12 20 22 41 52 39 34 35 38 56 45 25 29 57 94 99 94 70 59 53 50 47 48 50 53 56 58 59 57 47 42 32 30 29 32 37
16 17 21 27 26 24 24 28 16 24 21 17 22 21 21 22 25 29 33 41 45 49 62 48 20 19 51 92 99 98 77 64 56 53 53 57 60 61 64 64 58 53 42 41 38 35 36 38 39
29 26 26 25 23 30 24 27 26 21 20 26 24 23 25 20 20 37 46 52 55 53 55 29 23 26 35 56 84 91 76 67 59 60 64 65 67 64 53 50 47 48 48 46 40 39 43 42 36
25 26 37 42 43 37 27 28 27 22 27 31 30 32 30 30 23 24 53 54 54 58 36 22 22 27 34 42 59 72 76 68 63 68 69 61 53 51 51 52 48 48 51 46 45 49 44 36 30
23 26 36 45 42 34 28 35 28 29 26 29 29 28 27 30 35 45 59 63 54 30 24 21 21 33 35 40 60 76 78 70 68 74 64 58 58 56 43 35 33 45 51 49 53 52 39 30 26
29 29 28 34 35 43 34 32 30 29 30 30 31 33 33 36 46 61 68 69 40 31 28 32 35 40 36 39 60 77 80 71 76 79 66 63 53 41 42 44 45 49 52 56 57 40 34 29 17
33 32 38 38 52 49 39 33 30 30 31 42 47 52 52 51 50 57 54 44 38 46 30 37 42 35 34 35 58 80 77 73 79 74 66 58 48 52 54 52 50 55 59 62 47 34 27 18 17
36 39 39 46 45 65 89 78 46 42 50 53 58 60 67 73 81 70 53 59 54 49 38 39 48 40 33 38 57 78 76 74 78 78 66 53 60 66 63 59 53 63 67 59 34 27 21 19 17
49 44 44 47 52 65 77 70 51 62 81 90 89 80 97 88 98 82 94 72 50 45 40 38 38 40 43 40 55 74 74 74 83 72 64 63 74 75 74 68 70 69 68 46 29 23 22 19 18
Wind_Speed
5 6 5 8 7 9 18 12 14 23 13 12 8 7 7 7 13 8 6 10 15 18 19 24 25 26 26 25 24 22 20 18 16 14 13 13 12 12 11 9 8 6 4 4 4 6 7 9 10
6 6 7 11 9 12 19 14 9 16 4 10 10 10 9 12 13 16 9 4 12 17 20 19 22 27 28 27 25 24 21 18 17 16 15 13 12 13 13 12 10 7 5 4 5 6 8 9 11
7 7 7 7 14 22 16 10 20 17 9 10 13 15 18 17 19 19 14 5 8 15 19 21 25 28 29 27 26 24 21 20 18 17 14 13 14 14 15 13 10 8 6 6 7 7 9 10 13
7 8 8 14 18 15 18 21 19 10 9 12 18 17 18 17 19 18 14 12 10 14 14 21 25 26 27 27 26 24 23 21 19 17 15 13 14 14 14 14 12 10 8 8 8 9 10 12 15
9 10 13 16 17 16 18 24 27 13 17 19 13 12 13 9 11 12 13 16 13 15 11 12 17 21 26 26 25 25 23 21 19 20 17 13 14 15 15 14 13 11 9 9 9 11 12 14 17
11 13 12 16 16 13 19 15 11 14 19 9 9 14 12 14 12 13 14 14 14 18 15 12 13 20 25 26 25 25 24 23 22 22 19 13 14 14 13 16 14 11 11 11 11 13 14 16 18
12 11 17 14 13 7 15 8 7 12 9 10 10 16 13 14 13 12 10 12 13 14 15 14 16 21 25 25 26 25 25 24 24 23 19 15 13 15 13 17 15 12 13 13 13 15 17 19 20
9 13 20 18 13 10 9 13 13 13 17 11 10 12 12 10 13 13 13 12 12 12 13 14 17 22 25 26 26 26 25 24 23 21 20 19 25 34 28 22 18 14 15 15 16 17 18 19 18
11 18 24 20 17 15 13 11 6 11 9 14 16 16 14 14 16 17 16 16 14 12 11 11 14 19 21 23 25 25 25 25 24 22 23 24 23 23 21 19 17 16 17 16 17 17 17 17 16
16 20 23 16 20 20 20 23 16 12 17 19 18 21 23 20 17 20 17 16 16 15 14 12 12 14 17 20 22 24 25 25 25 24 26 26 23 22 20 19 18 19 19 17 16 15 15 16 17
21 24 21 23 25 27 27 26 25 22 20 17 20 20 21 22 23 16 15 19 18 19 19 17 16 16 17 18 20 23 25 25 26 26 25 24 23 21 20 20 21 21 19 17 15 15 16 18 20
23 25 22 23 20 20 26 30 23 27 29 27 17 18 16 16 18 19 16 18 18 18 19 19 19 18 18 19 22 22 23 25 26 22 21 21 21 21 21 22 22 20 17 16 15 16 18 20 23
23 25 29 28 27 26 29 29 27 32 28 31 26 23 22 20 17 17 18 17 18 20 21 21 22 22 21 22 22 21 21 21 20 20 21 22 22 21 22 23 22 19 17 16 17 18 20 22 25
18 22 24 27 30 32 35 36 30 30 30 27 29 26 22 27 26 21 24 23 26 26 24 24 25 24 24 23 21 22 21 21 21 22 22 22 22 23 24 22 19 18 18 18 19 20 22 24 26
17 25 24 18 14 17 25 27 27 29 33 27 27 31 32 31 32 30 24 25 25 26 25 25 25 26 26 24 22 21 21 22 22 22 23 23 23 23 22 20 19 19 19 20 21 22 24 27 30
21 22 24 8 11 12 20 20 22 22 24 29 29 30 35 36 36 36 33 26 29 26 25 26 26 27 27 26 24 22 21 22 23 23 24 23 22 22 22 20 19 20 20 21 22 23 26 29 30
15 17 18 18 13 24 19 21 6 7 20 26 30 26 30 37 35 36 32 28 24 24 23 23 25 27 28 27 23 21 21 22 23 23 23 21 20 21 20 19 18 19 20 21 22 24 26 29 30
21 20 24 29 29 28 30 32 19 13 19 19 24 29 32 35 36 34 32 29 23 24 26 25 27 27 28 28 24 23 22 22 22 21 21 19 19 20 19 18 18 19 20 23 24 25 26 26 27
21 28 31 34 31 34 36 39 34 30 28 30 27 31 35 38 39 38 34 28 24 24 27 26 27 29 30 30 26 21 20 21 20 20 19 18 18 18 19 18 19 20 22 25 26 27 25 25 26
21 28 30 36 31 30 32 43 38 32 31 28 25 35 41 44 42 42 40 33 26 25 19 22 24 28 31 31 25 23 21 19 18 17 18 18 18 18 19 19 20 22 24 26 27 24 23 24 24
19 23 26 29 28 26 30 44 40 38 37 32 30 32 37 46 48 48 44 38 29 25 20 16 19 23 27 30 27 24 21 19 17 18 19 19 19 19 19 20 22 24 25 24 23 23 23 21 21
30 23 24 25 26 22 17 24 43 40 33 30 30 30 35 39 46 48 47 43 34 27 21 19 18 21 24 26 25 23 22 19 19 20 20 19 19 19 19 21 23 22 20 20 21 22 22 20 18
36 27 29 27 29 28 35 17 55 29 39 29 22 23 34 36 42 49 51 45 34 30 25 19 18 19 18 21 24 25 23 20 20 20 19 18 18 20 21 21 18 20 20 20 21 22 21 19 17
26 31 31 33 33 16 45 22 36 42 33 30 30 27 30 35 31 45 53 46 38 33 25 15 14 16 16 20 24 25 21 19 19 17 17 18 20 19 16 16 17 19 20 20 20 20 18 17 16
27 21 10 6 6 14 38 20 37 34 32 17 19 17 22 26 28 37 54 44 37 26 17 12 14 17 18 21 23 23 20 19 18 18 16 17 15 14 14 16 18 19 19 20 19 18 16 15 14
36 24 15 7 10 17 27 12 21 14 25 36 35 30 29 28 29 39 39 31 22 18 13 12 16 17 17 19 22 22 21 20 20 17 15 14 12 12 12 14 17 19 20 20 18 17 15 13 13
35 32 28 24 26 18 24 27 29 35 32 31 31 30 29 26 25 29 27 21 17 15 11 11 14 14 16 17 21 23 23 21 19 15 14 13 12 10 12 15 18 19 19 18 17 15 15 13 11
27 31 19 17 6 16 7 14 16 19 22 18 20 20 21 23 27 30 31 24 17 11 12 13 14 14 16 18 20 21 21 20 19 16 15 14 13 12 14 16 17 17 18 16 15 15 14 12 10
24 22 23 14 12 5 4 6 23 28 22 24 22 26 28 25 20 17 17 15 7 8 10 10 12 12 15 16 18 21 21 21 21 20 19 16 15 14 15 16 18 16 16 15 14 13 12 11 10
41 39 33 18 9 13 11 13 25 16 12 15 21 29 20 24 23 26 18 15 8 9 10 12 12 15 18 18 17 21 22 22 21 22 21 19 18 17 18 19 19 17 16 16 13 12 12 11 10
Wind_Direction
282 268 276 273 262 252 267 281 306 331 277 264 251 245 246 205 186 226 168 186 190 196 194 197 200 205 210 216 215 211 208 203 201 203 203 206 207 199 192 192 190 192 216 275 314 326 336 340 342
271 264 261 261 252 261 283 305 352 334 244 275 281 278 276 282 288 290 281 235 218 212 209 209 209 213 212 212 217 215 211 209 209 213 218 220 219 213 206 204 207 217 227 266 295 309 320 330 334
258 260 252 249 248 250 274 318 330 321 272 294 301 296 293 294 290 288 287 269 203 211 213 223 220 217 214 213 217 220 219 219 219 222 224 238 231 224 217 216 220 230 249 265 284 297 309 322 328
246 255 251 249 254 266 292 313 313 280 243 271 289 293 286 284 290 291 282 271 235 222 216 220 223 220 220 217 220 225 226 225 225 227 232 243 240 234 228 226 230 237 254 269 283 295 308 318 324
223 242 242 258 262 280 306 322 315 234 249 262 275 279 276 279 291 281 288 265 251 220 222 212 218 224 225 222 223 227 229 229 227 229 232 241 240 237 236 236 241 252 261 275 287 297 308 318 320
228 228 248 261 276 298 332 333 310 213 255 258 250 276 269 283 279 280 284 260 253 229 223 215 212 218 222 223 226 229 231 231 230 233 241 248 239 240 249 251 247 254 269 279 289 297 304 311 311
234 227 250 258 274 323 25 347 297 278 271 278 265 265 263 262 281 273 275 261 256 234 220 217 215 216 220 224 227 230 232 232 234 236 241 252 248 284 263 257 255 260 270 278 288 297 304 307 307
237 263 265 256 275 293 341 322 308 287 284 271 246 265 262 254 264 272 279 267 253 238 224 226 219 215 221 226 230 233 235 237 241 244 243 240 275 286 258 255 255 260 270 280 290 294 298 299 303
212 248 259 267 287 296 319 311 305 282 269 276 272 261 262 269 260 274 281 258 257 244 236 230 224 223 227 231 235 237 239 239 239 242 249 253 264 268 245 249 256 264 271 279 281 287 293 299 303
224 247 256 279 290 297 298 287 288 280 277 278 282 271 271 273 283 268 263 261 254 248 243 240 236 236 240 242 245 245 241 239 238 243 245 259 260 251 245 252 260 264 270 276 283 290 297 302 303
234 245 257 268 276 279 277 273 271 276 269 280 278 274 266 270 271 270 270 262 257 255 252 250 249 247 246 251 253 251 248 242 242 249 248 252 247 243 247 252 258 265 271 275 281 290 298 301 302
246 240 256 261 261 256 266 270 278 272 272 268 271 274 261 263 264 280 273 260 256 258 258 253 250 250 257 263 262 258 249 243 244 247 243 238 236 239 245 251 258 263 267 274 281 290 297 300 299
260 260 249 253 254 255 264 269 275 270 275 274 264 274 277 281 262 260 267 258 258 261 258 255 252 253 257 257 259 253 244 238 236 232 230 232 236 241 248 254 257 262 268 274 282 291 296 298 299
281 271 270 266 266 268 272 271 261 266 270 273 273 279 269 277 277 259 275 278 275 264 259 256 255 256 255 257 254 244 235 232 229 229 232 235 241 245 249 251 256 263 269 278 286 291 295 299 302
284 288 286 292 302 303 297 282 267 265 260 267 271 274 271 273 273 273 269 280 281 267 256 254 253 252 252 253 244 233 226 230 232 235 238 241 245 247 250 255 262 267 273 281 286 292 299 302 299
290 283 284 267 291 310 317 317 280 267 247 259 267 271 270 266 269 269 273 279 285 273 260 255 258 251 249 250 244 227 223 229 235 239 243 245 246 249 254 258 262 269 276 281 287 297 301 299 299
293 280 282 310 285 298 290 308 337 305 247 255 268 272 272 265 271 271 274 279 287 280 261 254 252 249 249 249 241 228 228 232 236 240 244 246 248 253 258 263 269 275 280 285 291 299 300 299 299
295 289 289 301 298 297 294 288 279 280 278 277 273 268 265 267 272 271 271 275 282 282 267 263 260 258 253 247 240 230 229 235 239 243 246 249 252 257 264 269 273 277 281 286 294 299 296 294 292
282 286 288 290 296 298 293 287 285 266 265 271 268 265 266 271 269 268 265 266 269 278 267 263 260 257 248 244 242 236 231 234 238 244 249 253 257 264 269 271 273 277 286 292 297 298 292 290 290
273 279 277 284 294 300 298 289 288 283 273 270 268 262 258 260 259 256 256 252 256 267 271 277 273 259 242 242 237 235 236 239 243 251 256 258 257 258 262 266 276 285 290 294 295 289 291 292 290
267 266 279 287 299 294 299 288 286 283 281 280 271 263 264 258 253 252 253 250 245 259 257 264 267 260 248 249 249 244 240 242 247 250 250 250 251 255 265 276 283 288 291 288 289 294 292 288 286
280 279 288 288 285 296 287 284 285 289 294 291 275 264 259 257 246 242 249 253 248 248 238 257 264 263 252 243 243 236 235 235 237 240 242 246 253 265 273 280 286 287 283 288 289 289 288 287 284
277 282 277 276 275 285 277 253 273 284 288 290 293 275 259 267 259 248 251 246 239 236 242 255 259 266 253 245 242 236 237 235 236 238 243 251 260 269 277 279 277 279 281 286 291 291 290 289 286
281 292 282 281 276 266 267 251 273 281 292 298 285 273 271 256 263 248 238 232 231 236 248 252 253 251 246 245 242 239 233 229 232 237 242 254 267 271 265 269 272 276 284 291 293 291 287 282 278
280 287 282 265 226 246 271 251 254 281 282 280 303 288 279 253 251 251 233 229 230 240 237 233 246 248 245 244 243 241 237 231 230 231 245 256 253 254 260 270 280 288 292 295 293 288 281 277 277
289 279 248 261 262 267 269 238 254 243 276 279 289 280 271 267 243 237 232 235 242 227 230 236 238 239 245 243 241 241 239 232 226 230 243 243 247 256 271 289 295 293 293 293 289 283 279 278 282
278 265 273 276 273 262 255 265 267 268 269 274 264 252 254 239 219 219 225 229 224 234 235 239 241 238 245 240 233 232 232 229 224 233 231 238 243 258 281 292 297 296 292 288 281 276 275 276 271
263 269 281 267 248 255 246 253 257 277 276 251 231 225 229 228 226 224 228 218 213 232 234 239 228 236 246 244 237 231 231 227 224 229 233 236 244 265 279 285 293 290 284 278 272 269 269 269 265
280 274 262 268 263 253 269 245 256 280 262 244 236 218 211 203 206 220 226 229 243 234 229 234 231 246 252 247 236 228 225 224 226 223 234 237 247 263 277 283 288 282 277 272 265 265 266 266 260
275 272 274 250 237 247 249 259 269 250 278 233 233 216 194 198 210 199 218 245 270 279 281 293 284 264 256 249 235 226 221 221 225 228 234 240 249 262 272 283 287 279 273 267 261 264 265 260 252